Weather History for VIDP - December, 2012

Change the Weather History Date:

Saturday, December 8, 2012

  Actual Average Record
Temperature  
Mean Temperature 64 °F -  
Max Temperature 78 °F 68 °F 84 °F (2000)
Min Temperature 50 °F 46 °F 33 °F (2004)
Degree Days  
Heating Degree Days 1    
Growing Degree Days 14 (Base 50)    
Moisture  
Dew Point 41 °F    
Average Humidity 47    
Maximum Humidity 66    
Minimum Humidity 23    
Precipitation  
Precipitation 0.00 in - - ()
Sea Level Pressure  
Sea Level Pressure 29.92 in    
Wind  
Wind Speed 3 mph ()    
Max Wind Speed 9 mph    
Max Gust Speed -    
Visibility 1.5 miles    
Events      
Averages and records for this station are not official NWS values.
T = Trace of Precipitation, MM = Missing Value Source: Averaged Metar Reports

Daily Weather History Graph

Daily Weather History Graph

Search for Another Location

Airport or City:

Trip Planner

Search our weather history database for the weather conditions in past years. The results will help you decide how hot, cold, wet, or windy it might be!

Date:

Astronomy

Dec. 08, 2012 Rise Set
Actual Time 7:01 AM IST 5:24 PM IST
Civil Twilight 6:36 AM IST 5:50 PM IST
Nautical Twilight 6:06 AM IST 6:20 PM IST
Astronomical Twilight 5:38 AM IST 6:48 PM IST
Moon 1:19 AM IST (12/8) 1:18 PM IST (12/8)
Length of Visible Light 11h 14m
Length of Day
10h 22m
Waning Crescent, 33% of the Moon is Illuminated
Dec 8
Waning Crescent
Dec 13
New
Dec 20
First Quarter
Dec 28
Full
Jan 5
Last Quarter

Hourly Weather History & Observations

Time (IST) Temp. Dew Point Humidity Pressure Visibility Wind Dir Wind Speed Gust Speed Precip Events Conditions
12:00 AM 57.2 °F 41.0 °F 55% 29.95 in 1.3 mi West 3.5 mph - N/A   Smoke
12:30 AM 57.2 °F 41.0 °F 55% 29.95 in 1.3 mi WSW 3.5 mph - N/A   Smoke
1:00 AM 57.2 °F 41.0 °F 55% 29.95 in 1.3 mi SW 3.5 mph - N/A   Smoke
1:30 AM 55.4 °F 41.0 °F 58% 29.92 in 1.3 mi West 2.3 mph - N/A   Smoke
2:00 AM 55.4 °F 41.0 °F 58% 29.92 in 1.3 mi WSW 2.3 mph - N/A   Smoke
2:30 AM 53.6 °F 39.2 °F 58% 29.92 in 1.3 mi WSW 3.5 mph - N/A   Smoke
3:00 AM 53.6 °F 39.2 °F 58% 29.92 in 1.3 mi WSW 3.5 mph - N/A   Smoke
3:30 AM 51.8 °F 39.2 °F 62% 29.92 in 1.3 mi WSW 2.3 mph - N/A   Smoke
4:00 AM 51.8 °F 39.2 °F 62% 29.92 in 1.3 mi WSW 3.5 mph - N/A   Smoke
4:30 AM 50.0 °F 39.2 °F 66% 29.92 in 1.3 mi WSW 2.3 mph - N/A   Smoke
5:00 AM 50.0 °F 39.2 °F 66% 29.92 in 1.6 mi West 2.3 mph - N/A   Smoke
5:30 AM 50.0 °F 37.4 °F 62% 29.92 in 1.4 mi Calm Calm - N/A   Smoke
6:00 AM 50.0 °F 37.4 °F 62% 29.92 in 1.6 mi West 3.5 mph - N/A   Smoke
6:30 AM 50.0 °F 37.4 °F 62% 29.92 in 1.6 mi West 3.5 mph - N/A   Smoke
7:00 AM 50.0 °F 37.4 °F 62% 29.95 in 1.7 mi WSW 4.6 mph - N/A   Smoke
7:30 AM 51.8 °F 35.6 °F 54% 29.95 in 1.7 mi WSW 2.3 mph - N/A   Smoke
9:00 AM 57.2 °F 35.6 °F 44% 29.98 in 1.9 mi West 4.6 mph - N/A   Smoke
9:30 AM 60.8 °F 35.6 °F 39% 30.01 in 1.9 mi West 5.8 mph - N/A   Haze
10:00 AM 60.8 °F 37.4 °F 42% 30.01 in 1.9 mi West 6.9 mph - N/A   Haze
11:30 AM 71.6 °F 37.4 °F 29% 29.98 in 2.2 mi West 6.9 mph - N/A   Haze
12:00 PM 71.6 °F 39.2 °F 31% 29.95 in 2.2 mi WNW 9.2 mph - N/A   Haze
12:30 PM 73.4 °F 39.2 °F 29% 29.92 in 2.2 mi West 9.2 mph - N/A   Haze
1:00 PM 75.2 °F 39.2 °F 27% 29.92 in 2.2 mi West 9.2 mph - N/A   Haze
1:30 PM 77.0 °F 39.2 °F 26% 29.92 in 2.2 mi WNW 8.1 mph - N/A   Haze
2:00 PM 77.0 °F 39.2 °F 26% 29.89 in 2.2 mi WNW 6.9 mph - N/A   Haze
2:30 PM 78.8 °F 37.4 °F 23% 29.89 in 1.9 mi West 8.1 mph - N/A   Haze
3:00 PM 78.8 °F 37.4 °F 23% 29.89 in 1.9 mi WNW 8.1 mph - N/A   Haze
3:30 PM 78.8 °F 39.2 °F 24% 29.86 in 1.9 mi WNW 9.2 mph - N/A   Haze
4:00 PM 78.8 °F 39.2 °F 24% 29.86 in 1.9 mi WNW 6.9 mph - N/A   Haze
4:30 PM 77.0 °F 41.0 °F 28% 29.86 in - WNW 4.6 mph - N/A   Haze
5:00 PM 75.2 °F 42.8 °F 31% 29.86 in - West 3.5 mph - N/A   Haze
5:30 PM 73.4 °F 42.8 °F 33% 29.86 in - West 4.6 mph - N/A   Haze
6:00 PM 71.6 °F 42.8 °F 35% 29.86 in - SW 3.5 mph - N/A   Haze
7:00 PM 66.2 °F 46.4 °F 49% 29.89 in 1.4 mi Calm Calm - N/A   Haze
7:30 PM 66.2 °F 46.4 °F 49% 29.89 in 1.4 mi Calm Calm - N/A   Haze
8:00 PM 64.4 °F 46.4 °F 52% 29.89 in 1.2 mi Calm Calm - N/A   Haze
8:30 PM 64.4 °F 46.4 °F 52% 29.89 in 1.0 mi Calm Calm - N/A   Haze
9:00 PM 64.4 °F 46.4 °F 52% 29.89 in 1.0 mi Calm Calm - N/A   Smoke
9:30 PM 62.6 °F 44.6 °F 52% 29.92 in 1.0 mi Calm Calm - N/A   Smoke
10:00 PM 60.8 °F 46.4 °F 59% 29.92 in 1.0 mi Calm Calm - N/A   Smoke
10:30 PM 60.8 °F 46.4 °F 59% 29.92 in 1.0 mi Calm Calm - N/A   Smoke
11:30 PM 59.0 °F 46.4 °F 63% 29.92 in 0.8 mi Calm Calm - N/A   Smoke